Regional Weather Roundup
Issued by NWS

Home | Current Version | Previous Version | Text Only | Print | Product List | Glossary On
Versions: 1 2 3 4 5 6 7 8 9 10 11 12 13 14 15 16 17 18 19 20 21 22 23 24 25 26 27 28 29 30 31 32 33 34 35 36 37 38 39 40 41 42 43 44 45 46 47 48 49 50
000
ASUS43 KTOP 230108
RWRKS

WEATHER ROUNDUP FOR KANSAS
NATIONAL WEATHER SERVICE GOODLAND KS
800 PM CDT THU JUN 22 2017

NOTE:  "FAIR" INDICATES FEW OR NO CLOUDS BELOW 12,000 FEET WITH NO
SIGNIFICANT WEATHER AND/OR OBSTRUCTIONS TO VISIBILITY.

KSZ001>006-013>018-027>032-041>047-230200-
NORTHWEST KANSAS

CITY           SKY/WX    TMP DP  RH WIND       PRES   REMARKS
GOODLAND       CLOUDY    81  58  45 N13       29.87R
HAYS           CLOUDY    95  66  38 NE8       29.65R HAZE    HX  98
HILL CITY      MOSUNNY   88  67  49 N20G25    29.72R
RUSSELL        SUNNY     95  63  34 S8        29.62R HX  96
$$

KSZ061>065-074>080-084>089-230200-
SOUTHWEST KANSAS

CITY           SKY/WX    TMP DP  RH WIND       PRES   REMARKS
DODGE CITY     CLOUDY    78  58  49 W48G61    29.76R THUNDER HAZE
ELKHART          N/A     77  49  37 NW21        N/A
GARDEN CITY    CLOUDY    76  59  55 SE16      29.74F
GREAT BEND     SUNNY     91  65  41 S9        29.65R
LIBERAL        CLOUDY    89  56  32 NE21G28   29.72R
PRATT          CLEAR     86  59  40 S8        29.68R
$$

KSZ066>073-081>083-090>101-230200-
SOUTHEAST KANSAS

CITY           SKY/WX    TMP DP  RH WIND       PRES   REMARKS
CHANUTE        PTCLDY    85  72  65 S8        29.66S
COFFEYVILLE    CLEAR     85  73  67 S9        29.65S
HUTCHINSON     CLEAR     92  62  36 S13       29.64R
MEDICINE LODGE   N/A     91  61  36 S7        29.64R
NEWTON         CLEAR     85  67  54 S12       29.67R
PARSONS        CLEAR     85  71  63 S3        29.67S
WICHITA INTL   PTCLDY    86  70  58 SE12      29.64R
WICHITA JABRA  CLEAR     84  68  58 S12G21    29.65R
WICHITA MCCONL CLEAR     86  68  54 S12       29.65R
WINFIELD       CLEAR     85  71  63 SE13      29.65R
$$

KSZ007>012-019>026-033>040-048>060-102>105-230200-
NORTHEAST KANSAS

CITY           SKY/WX    TMP DP  RH WIND       PRES   REMARKS
CONCORDIA      CLEAR     91  65  41 S9        29.60R
EMPORIA        CLEAR     83  72  69 S7        29.66R
LAWRENCE       PTCLDY    85  73  67 SE10      29.65R
MANHATTAN      CLEAR     89  70  53 S12       29.62S
MARYSVILLE     CLEAR     86  70  58 S8        29.61S
OLATHE IND     CLEAR     83  72  69 S13       29.66S
OLATHE EXE     CLEAR     82  73  74 S15       29.66S
SALINA         CLEAR     95  62  33 S13       29.61R HX  96
TOPEKA BILLARD PTCLDY    86  72  62 S9        29.65R
TOPEKA FORBES  MOCLDY    87  73  62 S7        29.66R
$$



USA.gov is the U.S. government's official web portal to all federal, state and local government web resources and services.